Lapse_Rate
3.6 3.7 3.6 3.7 5.6 5.3 3.7 3.8 4.0 3.8 4.2 4.3 4.5 4.8 4.9 5.2 5.2 5.1 5.4 5.7 6.6 7.0 7.1 7.0 6.9 6.6 7.9 8.0 7.9 7.7 7.2 7.0 6.2 5.8 6.1 5.3 6.9 7.3 6.5 6.7 6.9 6.5 6.5 7.0 7.3 7.3 7.2
3.4 3.3 3.1 3.2 3.1 2.9 3.2 3.2 3.5 3.5 3.6 3.8 4.1 4.0 4.1 4.2 4.7 4.9 5.2 5.6 6.3 6.6 6.7 6.7 6.4 5.7 8.7 6.7 8.4 5.9 6.1 6.9 7.0 6.2 5.7 6.3 7.3 7.9 7.2 6.8 6.6 6.9 6.9 6.9 7.2 7.1 7.2
3.1 3.2 3.3 3.4 3.0 2.6 2.8 3.1 3.1 3.1 3.2 3.3 3.7 3.6 3.7 3.8 3.8 4.2 5.0 5.4 6.2 6.2 6.3 6.4 6.1 9.0 8.4 7.6 7.2 5.6 6.9 6.5 6.7 5.4 5.6 7.7 8.6 7.6 7.6 6.5 7.5 7.2 6.5 6.5 6.7 6.9 6.6
2.8 3.3 3.0 3.1 3.2 2.8 2.8 3.0 2.9 2.9 3.1 3.0 3.2 3.2 3.4 3.3 3.1 3.6 3.9 5.4 6.3 5.9 5.8 6.0 6.0 9.3 7.6 6.0 6.9 7.9 8.9 7.9 7.9 5.5 6.1 8.3 8.7 8.0 7.4 7.7 7.0 6.5 6.5 6.5 6.5 6.6 6.8
2.7 3.2 2.9 2.7 2.8 2.9 2.9 2.7 2.8 2.7 2.8 2.8 2.6 2.8 2.9 3.1 2.8 2.8 3.9 5.0 5.6 6.0 6.0 6.3 7.9 8.6 7.2 6.9 8.0 8.7 8.0 8.2 8.2 6.0 7.5 9.1 8.5 7.4 7.3 6.5 6.5 6.5 6.5 6.5 6.5 6.7 6.5
2.7 2.9 2.7 2.5 2.6 2.7 2.8 2.8 2.3 2.2 2.4 2.2 2.0 2.0 2.2 2.4 2.5 2.6 3.5 4.0 5.2 6.8 7.5 8.6 9.4 7.7 8.3 7.7 8.7 9.0 8.9 7.9 6.9 8.2 7.9 7.7 7.4 6.5 6.5 6.5 6.5 6.5 6.5 6.5 6.5 6.5 6.5
2.3 2.7 2.6 2.4 2.5 2.5 2.5 2.6 2.5 2.1 1.7 1.8 1.6 1.3 1.7 1.9 2.4 2.1 3.6 6.6 7.8 8.0 8.5 7.6 7.6 7.6 8.0 8.6 8.8 8.5 8.6 8.1 8.4 7.6 6.5 6.9 6.5 6.5 6.5 6.5 6.5 6.5 6.5 6.5 6.5 6.5 6.5
2.0 2.5 2.6 2.4 2.3 2.5 2.4 2.0 2.0 1.9 1.4 1.2 1.2 1.1 1.1 1.5 1.7 3.0 5.6 7.8 5.8 5.3 6.9 8.3 8.3 8.1 8.3 8.1 7.5 7.6 8.0 7.4 7.1 6.5 6.6 6.5 6.5 6.5 6.5 6.5 6.5 6.5 6.5 6.5 6.5 6.5 6.5
1.9 2.1 2.2 2.2 2.3 2.2 2.2 1.9 1.7 1.3 1.0 1.1 1.2 1.4 1.3 1.1 2.1 4.7 5.8 4.0 3.6 5.2 6.9 7.4 7.2 7.8 7.6 8.3 7.3 7.4 8.3 7.6 6.6 6.5 6.5 6.5 6.5 6.6 6.5 6.5 6.5 6.5 6.5 6.5 6.5 6.5 6.5
2.0 1.9 1.7 1.8 2.1 2.0 1.9 1.6 1.4 1.3 0.6 0.5 1.3 1.5 1.5 1.6 4.6 6.0 5.3 3.7 3.6 4.6 6.5 6.5 6.8 7.6 8.1 8.0 6.8 8.4 7.8 7.5 6.6 6.5 6.5 6.5 6.6 6.5 6.5 6.5 6.5 6.5 6.5 6.5 6.5 6.5 6.5
1.8 1.9 1.6 1.5 1.5 1.6 1.4 1.3 1.2 1.1 0.7 0.1 0.8 1.4 1.3 2.5 6.3 7.2 4.4 3.6 4.1 4.9 6.5 6.5 6.8 7.6 8.2 7.1 7.3 7.3 7.0 7.7 6.5 6.5 6.5 6.5 6.5 6.5 6.5 6.5 6.5 6.5 6.5 6.5 6.5 6.5 6.5
2.1 1.7 1.6 1.3 1.3 1.1 1.0 1.0 0.8 0.6 0.5 0.2 0.4 1.3 1.9 4.7 5.9 3.8 3.1 4.0 5.2 6.5 6.5 6.5 6.8 6.6 6.6 7.0 7.0 7.5 7.4 7.9 7.2 6.5 6.5 6.5 7.1 6.5 6.5 6.5 6.5 6.5 6.5 6.5 6.5 6.5 6.5
1.7 1.7 1.4 1.3 1.1 0.9 0.6 0.7 0.6 0.4 0.3 -0.2 0.2 1.5 4.2 4.7 6.6 3.6 3.7 6.3 6.5 6.5 6.5 6.5 6.5 6.5 6.5 6.5 6.5 6.5 6.5 6.5 6.5 6.5 6.5 6.5 6.5 6.6 6.8 6.5 6.5 6.5 6.5 6.5 6.5 6.5 6.5
1.6 1.7 1.6 1.4 1.2 0.8 0.5 0.5 0.3 0.0 -0.3 -0.5 -0.1 1.9 2.3 3.5 3.6 3.6 5.4 6.6 6.5 6.5 6.5 6.5 6.5 6.5 6.5 6.5 6.5 6.5 6.5 6.5 6.5 6.5 6.5 6.5 6.5 6.5 6.5 6.5 6.5 6.5 6.5 6.5 6.5 6.5 6.5
1.5 1.5 1.4 1.5 1.3 0.9 0.4 0.3 0.1 -0.4 -0.7 -0.7 -0.2 4.5 5.2 3.9 2.5 3.6 7.4 6.5 6.5 6.5 6.5 6.5 6.5 6.5 6.5 6.5 6.5 6.5 6.5 6.5 6.5 6.5 6.5 6.5 6.5 6.5 6.5 6.5 6.5 6.5 6.5 6.5 6.5 6.5 6.5
1.7 1.5 1.2 1.3 1.4 1.0 0.7 0.3 -0.2 -0.6 -0.8 -1.0 5.3 6.2 5.7 2.5 2.4 4.7 6.7 6.5 6.5 6.7 6.7 6.5 6.5 6.5 6.5 6.5 6.5 6.5 6.5 6.5 6.5 6.6 6.8 6.5 6.5 6.5 6.5 6.7 6.6 6.5 6.5 6.5 6.5 6.5 6.5
2.0 1.7 1.5 1.2 1.0 1.1 0.6 0.4 -0.2 -0.6 -1.1 -1.1 4.4 7.6 4.5 1.9 2.8 7.4 6.5 6.5 6.5 7.2 7.1 6.5 6.5 6.5 6.5 6.5 6.5 6.5 6.5 6.5 6.5 6.5 6.8 6.5 6.5 6.5 6.5 6.5 6.5 6.5 6.5 6.5 6.5 6.5 6.5
2.0 2.1 1.8 1.5 0.9 1.0 0.9 0.4 -0.1 -0.8 -1.2 -0.2 4.9 6.6 4.0 2.5 6.8 6.9 6.5 6.5 6.4 6.7 7.3 6.7 6.6 6.5 6.5 6.5 6.5 6.5 6.5 6.5 7.1 6.9 6.5 6.5 6.5 6.5 6.5 6.5 6.5 6.5 6.5 6.5 6.5 6.5 6.5
2.5 2.3 2.3 2.1 1.3 1.0 0.9 0.8 -0.0 -0.5 -1.2 3.2 7.7 7.4 4.3 3.1 6.5 6.5 6.7 6.5 6.9 6.5 6.5 6.5 6.5 6.5 6.5 6.5 6.5 6.5 6.5 6.9 7.2 6.6 6.5 6.5 6.5 6.5 6.5 6.5 6.5 6.5 6.5 6.5 6.5 6.5 6.5
3.4 3.2 3.0 3.0 2.1 1.6 1.2 1.1 0.4 -0.2 -0.6 2.3 7.6 6.5 7.5 7.3 7.7 6.6 6.5 6.5 6.5 7.2 6.8 6.9 6.6 6.7 6.5 6.5 6.5 6.5 6.5 6.6 7.1 6.9 6.0 6.8 6.5 6.5 6.5 6.5 6.5 6.5 6.5 6.5 6.5 6.5 6.5
4.3 4.1 3.6 3.6 3.3 2.3 1.8 1.5 0.8 0.2 -0.6 2.2 6.0 6.9 6.1 6.5 6.7 6.7 6.6 6.5 6.5 6.5 6.9 7.1 6.5 6.5 6.5 6.5 6.5 6.5 6.5 6.5 6.8 6.5 6.8 6.5 6.5 6.5 6.5 6.5 6.5 6.5 6.5 6.5 6.5 6.5 6.5
5.0 4.3 4.3 3.9 4.1 3.5 2.7 2.0 1.4 0.6 0.2 5.0 7.4 7.2 7.2 7.1 7.2 6.6 6.5 6.5 6.5 6.5 6.5 6.5 6.5 6.5 6.5 6.5 6.5 6.5 6.5 6.5 6.5 6.6 6.5 6.6 6.5 6.5 6.5 6.5 6.5 6.5 6.5 6.5 6.5 6.5 6.5
5.8 5.1 4.7 4.4 4.3 3.9 3.3 2.7 2.2 1.5 2.4 6.3 4.2 4.7 7.2 5.4 6.7 6.5 6.5 6.5 6.5 6.7 6.9 7.0 6.7 6.5 6.5 6.6 7.1 7.3 7.3 7.2 6.9 6.5 6.5 6.5 6.5 6.5 6.5 6.5 6.5 6.5 6.5 6.5 6.5 6.5 6.5
6.0 5.6 5.1 4.6 4.5 4.2 4.0 3.3 2.9 2.3 2.4 5.4 4.9 6.4 7.4 6.5 6.5 6.5 6.6 6.8 6.5 6.7 6.5 7.0 7.2 6.6 7.1 7.3 7.8 7.6 7.4 7.1 7.0 6.8 6.9 6.5 6.5 6.5 6.5 6.5 6.5 6.5 6.5 6.5 6.5 6.5 6.5
6.3 5.9 5.5 5.0 4.8 4.6 4.3 3.9 3.5 3.1 3.4 5.5 4.5 6.0 7.7 6.5 6.8 6.8 6.8 6.7 7.0 7.1 6.8 6.9 7.3 7.6 7.1 7.5 6.5 6.5 6.5 6.5 6.5 6.5 6.5 6.7 6.5 6.5 6.5 6.5 6.5 6.5 6.5 6.5 6.5 6.5 6.5
6.1 5.7 5.6 5.3 5.3 4.9 4.2 4.3 4.1 3.9 3.6 5.6 4.8 4.1 6.6 7.0 6.6 7.4 6.9 7.0 6.5 6.5 6.6 7.0 7.1 6.8 7.5 6.7 6.5 6.5 6.5 6.5 6.5 6.5 6.7 6.5 6.5 6.5 6.5 6.5 6.5 6.5 6.5 7.0 6.7 6.5 6.7
4.7 4.5 4.2 4.2 4.3 4.3 4.0 4.1 3.8 4.6 4.2 5.2 5.1 3.5 6.1 7.2 7.5 7.6 6.8 6.7 7.5 7.0 6.5 7.0 7.2 7.2 7.0 6.5 6.5 6.5 6.5 6.5 6.5 6.5 6.5 6.5 6.5 6.5 6.5 6.5 6.5 6.5 6.8 7.1 6.5 6.5 6.9
4.3 4.0 3.8 3.6 3.6 4.0 3.9 4.4 4.0 4.7 4.7 5.4 5.3 3.9 5.3 7.6 7.2 5.9 6.8 7.4 7.1 7.3 6.5 7.1 6.9 6.9 6.7 6.5 6.5 6.5 6.5 6.5 6.5 6.5 6.5 6.5 6.5 6.5 6.5 6.5 6.5 7.0 6.7 6.5 6.7 7.2 7.3
4.5 4.2 3.9 3.6 3.3 3.6 3.6 4.1 4.1 4.5 4.7 4.9 6.5 4.5 4.8 6.7 6.9 5.5 6.6 6.6 7.0 7.8 7.6 7.2 7.1 7.0 7.1 6.5 6.5 6.5 6.5 6.5 6.5 6.5 6.5 6.5 6.5 6.5 6.5 6.5 6.8 7.3 7.1 7.6 7.7 7.4 7.5
Wind_Speed
16 18 18 19 18 17 16 12 10 10 11 12 14 16 17 18 19 20 19 16 11 7 8 9 8 6 6 3 6 10 2 6 8 8 5 7 20 18 18 21 14 14 7 3 7 8 10
18 18 18 19 20 19 16 14 12 11 11 11 13 15 17 18 19 20 18 14 11 6 6 6 6 6 5 7 5 9 6 5 6 5 4 5 7 10 18 19 18 8 8 11 10 10 8
18 18 19 19 19 19 18 16 14 12 12 12 12 14 17 19 20 19 16 9 5 3 3 7 5 4 14 6 3 2 3 4 3 2 3 10 9 6 14 15 4 14 13 11 9 10 5
17 18 20 19 20 19 19 18 17 15 13 13 12 13 16 19 20 20 13 5 4 4 7 8 5 2 6 1 3 6 5 3 8 7 10 10 8 4 8 12 8 12 14 12 7 7 4
17 18 19 19 19 20 20 19 18 17 15 14 14 14 16 17 18 18 7 7 7 6 7 5 4 4 6 7 3 6 3 3 9 6 9 9 7 2 6 13 11 12 15 14 8 1 7
17 19 20 20 20 19 19 19 18 17 16 15 15 16 17 18 15 15 8 7 4 6 8 5 3 4 4 3 4 3 1 5 3 8 10 6 6 7 12 12 11 14 17 15 12 4 9
17 18 20 20 20 20 19 20 19 17 16 16 15 15 15 17 16 12 6 6 3 3 11 10 5 6 3 3 2 4 3 7 6 7 5 2 11 8 10 6 6 6 15 17 11 2 9
15 17 19 20 20 20 19 19 19 18 17 15 15 16 15 13 15 10 5 3 4 3 7 9 10 7 3 5 11 10 1 2 4 6 4 8 8 5 4 2 1 4 17 14 5 2 4
12 15 18 19 20 20 20 20 19 20 17 15 15 14 15 15 8 2 5 4 3 3 3 9 3 4 4 6 4 2 7 4 7 9 10 8 5 2 4 5 7 2 10 12 9 7 3
11 14 17 18 20 21 21 21 20 20 19 15 14 12 15 16 2 1 2 2 2 3 2 11 9 5 2 4 0 5 4 4 3 6 8 8 5 1 5 7 8 7 7 2 12 10 4
11 14 17 18 19 21 22 23 23 22 19 17 13 10 12 10 2 1 3 1 1 3 3 12 6 4 7 5 6 6 4 5 6 4 4 3 6 7 9 5 6 4 3 2 4 5 3
13 14 16 18 19 21 22 23 23 22 21 17 12 9 7 2 3 2 2 2 3 1 4 5 4 8 5 8 4 3 3 3 2 11 16 6 0 5 4 4 5 2 2 3 2 2 0
12 14 16 17 19 20 22 23 24 24 22 17 9 6 3 3 2 1 2 3 2 5 1 5 4 7 8 8 5 7 6 8 3 3 6 5 8 3 6 1 2 3 2 2 1 1 0
10 13 16 18 19 21 22 23 24 24 23 15 5 1 5 4 3 2 2 2 7 1 1 2 3 6 4 8 4 5 1 7 10 5 3 2 2 9 10 5 4 4 4 3 1 3 3
10 12 14 17 19 21 23 24 25 23 23 12 3 2 1 3 1 2 3 5 3 3 3 7 4 4 3 4 4 3 7 6 7 9 4 2 3 2 6 5 5 4 1 2 2 1 2
11 12 13 15 18 20 23 24 25 24 22 9 2 2 3 3 0 3 5 4 4 5 6 4 5 4 5 7 3 4 5 5 6 8 7 3 4 3 3 2 3 1 2 2 1 1 1
13 12 13 13 15 20 21 25 25 25 22 4 2 2 3 1 2 1 4 3 3 3 1 2 5 4 4 5 5 5 5 3 7 7 7 5 2 2 2 1 4 1 2 1 2 3 2
12 12 12 13 14 17 21 23 26 26 25 2 2 0 2 1 2 3 3 3 1 2 2 2 1 3 5 7 6 4 5 6 7 6 4 4 3 2 4 3 3 4 4 4 2 2 1
11 11 12 14 15 16 20 23 24 24 18 3 2 2 2 2 3 4 3 3 1 1 2 1 1 1 1 4 2 6 6 5 8 8 8 7 1 0 2 2 2 5 4 1 1 2 4
11 12 12 13 14 16 18 22 24 23 18 4 3 1 3 3 3 5 5 2 2 1 1 0 1 2 2 2 2 2 1 1 4 4 5 4 4 6 4 5 3 3 6 8 7 4 5
13 12 11 12 14 14 16 21 25 25 19 3 3 2 2 1 3 5 2 3 3 1 0 2 1 2 3 0 1 2 1 4 3 2 2 4 3 2 7 7 5 8 10 9 13 11 7
13 11 11 10 12 12 13 17 24 26 20 1 2 2 2 2 1 2 1 2 4 4 3 2 2 2 3 4 6 4 4 1 2 3 3 4 1 3 5 2 6 12 14 15 16 17 17
15 12 10 10 10 10 10 13 18 24 17 3 1 1 3 3 2 3 3 5 4 2 1 1 2 2 2 1 3 4 4 5 4 5 2 3 2 2 4 1 8 12 9 12 9 9 12
17 15 12 11 10 9 8 8 12 16 12 3 3 3 3 3 3 1 3 3 5 3 1 3 2 2 2 3 5 5 6 6 6 6 4 3 5 2 4 3 4 3 5 2 6 10 11
19 17 15 12 12 10 7 6 6 9 11 2 2 2 2 2 1 4 4 2 3 2 2 1 2 2 3 4 3 3 4 3 3 1 6 6 6 3 3 5 12 12 1 1 3 2 3
18 17 15 13 11 11 9 7 5 4 5 2 2 2 2 4 3 2 4 3 2 3 3 2 2 1 2 2 2 2 3 2 4 4 1 5 6 5 3 4 5 4 4 2 1 5 5
10 10 10 10 9 9 9 11 9 5 2 1 1 1 2 3 2 2 2 2 3 2 1 2 2 2 1 2 3 4 4 1 4 4 5 4 5 11 9 6 7 2 6 2 4 3 2
8 7 7 8 8 10 11 12 13 10 6 2 1 1 2 2 1 2 1 2 1 2 3 4 2 3 3 4 3 3 3 2 3 0 2 6 5 5 5 6 7 5 6 4 4 3 5
7 6 6 9 11 12 14 15 16 15 12 5 1 2 1 2 2 1 3 4 3 4 3 2 4 1 2 3 2 2 3 3 4 4 2 4 8 4 5 1 4 1 5 3 5 7 9
Wind_Direction
22 20 17 12 10 6 7 1 350 342 336 338 335 333 329 326 329 332 328 326 334 307 293 311 312 303 274 72 10 358 105 78 74 81 25 210 230 178 184 184 170 218 151 159 154 194 185
20 20 15 13 10 8 9 360 349 344 339 338 337 333 329 326 335 333 329 331 350 4 350 332 326 278 266 73 20 7 3 74 67 64 85 250 233 210 172 174 190 167 157 146 168 155 154
19 16 17 17 13 11 10 4 352 350 343 338 341 337 333 334 339 335 335 337 353 32 10 346 295 305 61 54 81 212 185 326 64 349 318 222 293 287 167 150 161 146 141 137 149 165 151
17 15 14 15 13 15 12 8 2 353 349 341 343 344 339 339 340 339 330 310 281 297 329 335 271 139 72 265 243 249 199 130 157 248 240 286 318 307 229 135 159 172 154 154 145 183 172
17 14 13 13 12 13 12 9 3 360 356 349 345 345 343 343 344 347 343 313 283 287 288 283 239 292 67 163 224 49 336 266 139 271 255 279 262 139 152 171 161 178 174 167 152 229 160
16 13 13 12 11 10 8 7 2 355 351 348 342 343 342 342 345 350 317 294 310 272 231 231 32 133 74 17 68 190 132 92 161 224 256 227 198 154 178 176 173 178 174 156 155 146 193
14 12 12 12 10 7 6 4 358 352 346 341 338 338 341 339 336 338 315 263 217 69 35 37 21 76 66 335 191 108 65 177 239 248 150 190 162 152 154 17 353 252 160 166 111 121 198
10 12 8 9 7 4 0 0 357 350 346 340 335 332 334 336 328 327 299 31 46 3 44 38 72 75 41 320 50 17 335 272 254 119 177 134 89 45 338 305 285 259 163 134 112 115 238
7 7 4 3 2 359 356 356 357 353 349 342 337 325 325 325 310 304 71 62 336 302 36 39 15 7 357 351 94 240 317 301 337 139 143 98 46 352 230 68 143 18 166 167 145 146 78
358 357 359 357 355 353 353 352 353 353 350 345 344 334 328 325 212 67 66 33 340 313 62 3 11 61 349 300 42 356 352 327 68 81 75 55 5 93 121 67 341 129 17 153 137 176 148
350 351 352 353 351 351 349 349 350 350 349 342 342 343 333 1 81 39 36 311 177 235 51 334 330 317 332 22 322 43 357 40 51 20 189 40 36 35 60 10 332 76 347 82 157 114 134
342 345 346 348 348 347 346 345 345 348 348 336 335 345 325 247 85 78 298 209 227 52 42 336 318 348 358 35 28 332 34 62 334 72 76 86 163 39 37 46 58 32 257 166 139 144 259
334 341 343 343 344 343 344 342 345 349 351 343 334 13 27 327 40 44 178 221 47 60 203 332 337 346 334 18 28 27 45 46 30 66 69 80 48 85 16 106 119 359 281 130 102 17 64
321 331 335 338 340 342 343 344 345 349 349 342 325 300 47 40 358 346 257 217 60 331 21 9 310 314 34 357 53 11 350 68 43 5 77 66 87 12 356 40 355 6 340 336 195 167 127
313 323 329 331 337 340 342 343 344 348 349 338 244 160 87 26 336 229 264 53 47 18 355 338 294 310 48 55 332 347 40 34 25 8 20 97 83 80 45 37 342 19 286 351 95 85 255
310 316 324 328 334 337 340 342 343 344 352 335 245 205 42 339 214 245 70 85 42 1 339 319 345 349 355 13 342 4 19 16 359 14 327 36 95 30 41 290 82 355 357 245 211 44 277
306 312 318 324 333 334 339 338 341 342 343 352 236 224 66 194 215 39 85 110 138 163 193 341 2 330 14 6 8 29 33 70 5 346 1 1 4 95 272 2 12 135 254 289 316 340 308
298 308 319 323 334 337 338 339 340 345 339 243 285 48 94 212 53 44 51 40 351 130 193 175 292 9 8 0 8 36 38 37 0 336 13 26 351 109 55 71 1 297 305 302 296 116 15
282 295 311 324 337 338 341 339 342 345 348 314 347 20 142 249 99 90 125 112 82 185 26 338 103 63 81 32 24 21 19 12 8 9 12 5 132 115 153 166 199 232 194 193 43 351 252
265 284 301 314 329 336 339 340 340 344 342 295 290 240 40 62 6 118 138 117 139 111 101 344 2 272 236 116 102 95 56 27 3 19 13 337 329 312 318 8 1 211 207 216 202 196 227
252 271 289 307 315 330 337 340 342 342 345 294 0 57 1 81 70 112 145 135 139 155 332 291 167 348 342 318 145 124 151 168 164 120 309 321 289 7 280 264 248 252 264 223 222 245 257
246 259 279 292 303 319 332 342 346 345 347 349 322 191 175 82 152 190 182 138 170 150 196 150 304 30 340 336 355 357 334 298 348 173 187 161 224 328 284 338 288 278 266 251 245 248 257
242 246 260 275 289 305 325 338 348 355 347 34 51 31 286 138 209 230 144 145 157 177 188 133 146 261 242 39 334 319 287 286 301 309 282 284 253 202 242 18 324 286 321 232 237 260 252
235 242 244 254 267 280 299 324 345 1 21 343 28 304 271 169 219 251 177 171 174 183 189 142 234 240 83 292 276 265 256 254 252 228 256 247 247 289 288 264 239 150 171 166 223 248 243
234 239 244 235 244 251 266 282 328 353 11 26 24 307 304 269 246 161 192 220 165 175 215 236 149 23 319 280 267 260 187 209 181 254 233 220 229 259 267 265 308 275 148 186 206 298 43
234 235 239 232 242 235 235 243 262 321 360 341 37 326 310 304 204 102 160 179 240 218 188 168 134 355 281 273 243 251 254 11 186 168 149 203 249 246 168 255 258 56 130 150 136 255 60
194 202 212 217 228 236 234 230 217 226 277 311 23 354 292 281 149 212 231 199 147 179 293 142 150 182 255 219 231 236 245 24 247 236 169 167 198 224 233 251 273 13 145 164 242 47 33
187 198 219 233 233 242 238 229 214 201 201 206 63 23 346 298 144 225 199 168 156 252 259 115 205 185 196 218 237 220 251 183 278 269 221 201 203 212 219 230 266 119 134 252 37 6 348
193 223 251 264 260 252 244 232 214 203 189 189 192 135 271 264 352 298 291 309 338 338 304 185 352 28 339 257 260 317 228 214 267 270 185 251 225 306 230 279 36 84 332 16 338 310 313